FW7353 Weather Reports


time (UTC)temp
C
wind
direction
speed
KPH
gust
KPH
rain 1hr
cm
rain 24hr
cm
rain mn
cm
humidity
%
barometer
mb
20260906124545 22 0 0.0 0.0 0.00 0.00 0.00 95 1010.7
20260906123045 22 0 0.0 0.0 0.00 0.00 0.00 95 1010.6
20260906121540 21 0 0.0 0.0 0.00 0.00 0.00 95 1010.5
20260906120050 21 0 0.0 0.0 0.00 0.00 0.00 95 1010.3
20260906114544 21 0 0.0 0.0 0.00 0.00 0.00 95 1010.3
20260906113044 21 0 0.0 0.0 0.00 0.00 0.00 95 1010.3
20260906111554 21 0 0.0 0.0 0.00 0.00 0.00 95 1010.1
20260906110056 21 0 0.0 0.0 0.00 0.00 0.00 95 1009.9
20260906104544 21 0 0.0 0.0 0.00 0.00 0.00 95 1009.9
20260906103053 21 0 0.0 0.0 0.00 0.00 0.00 95 1009.8
20260906101550 21 0 0.0 0.0 0.00 0.00 0.00 95 1009.5
20260906100049 21 0 0.0 0.0 0.00 0.00 0.00 95 1009.2
20260906094546 21 0 0.0 0.0 0.00 0.00 0.00 95 1009.2
20260906093054 21 0 0.0 0.0 0.00 0.00 0.00 95 1009.0
20260906091541 21 0 0.0 0.0 0.00 0.00 0.00 95 1009.0
20260906090119 21 0 0.0 0.0 0.00 0.00 0.00 95 1009.1
20260906084550 21 0 0.0 0.0 0.00 0.00 0.00 95 1009.3
20260906083043 21 0 0.0 0.0 0.00 0.00 0.00 95 1009.2
20260906081542 21 0 0.0 0.0 0.00 0.00 0.00 95 1009.1
20260906080041 21 0 0.0 0.0 0.00 0.00 0.00 95 1009.1
20260906074551 22 0 0.0 0.0 0.00 0.00 0.00 95 1009.2
20260906073041 22 0 0.0 0.0 0.00 0.00 0.00 95 1009.0
20260906071540 22 0 0.0 0.0 0.00 0.00 0.00 95 1009.1
20260906070050 22 0 0.0 0.0 0.00 0.00 0.00 95 1009.1
20260906064545 22 0 0.0 0.0 0.00 0.00 0.00 95 1009.2
20260906063042 22 0 0.0 0.0 0.00 0.00 0.00 95 1009.2
20260906061548 22 0 0.0 0.0 0.00 0.00 0.00 95 1009.4
20260906060041 22 0 0.0 0.0 0.00 0.00 0.00 95 1009.4
20260906054545 22 0 0.0 0.0 0.00 0.00 0.00 95 1009.4
20260906053057 22 0 0.0 0.0 0.00 0.00 0.00 95 1009.3
20260906051541 22 0 0.0 0.0 0.00 0.00 0.00 95 1009.4
20260906050050 22 0 0.0 0.0 0.00 0.00 0.00 95 1009.6
20260906044542 22 0 0.0 0.0 0.00 0.00 0.00 95 1009.5
20260906043040 22 0 0.0 0.0 0.00 0.00 0.00 95 1009.4
20260906041551 22 0 0.0 0.0 0.00 0.00 0.00 95 1009.6
20260906040048 22 0 0.0 0.0 0.00 0.00 0.00 95 1009.4
20260906034544 22 0 0.0 0.0 0.00 0.00 0.00 95 1009.4
20260906033045 22 0 0.0 0.0 0.00 0.00 0.00 95 1009.5
20260906031541 22 0 0.0 0.0 0.00 0.00 0.00 95 1009.6
20260906030050 22 0 0.0 0.0 0.00 0.00 0.00 95 1009.6
20260906024600 22 0 0.0 0.0 0.00 0.00 0.00 95 1009.8
20260906023041 22 0 0.0 0.0 0.00 0.00 0.00 95 1009.9
20260906021542 22 0 0.0 0.0 0.00 0.00 0.00 95 1009.8
20260906020042 22 0 0.0 0.0 0.00 0.00 0.00 95 1010.2
20260906014549 22 0 0.0 0.0 0.00 0.00 0.00 95 1010.2
20260906013043 23 0 0.0 0.0 0.00 0.00 0.00 95 1010.1
20260906011554 23 0 0.0 0.0 0.00 0.00 0.00 95 1010.0
20260906010105 23 0 0.0 0.0 0.00 0.00 0.00 95 1010.2
20260906004546 23 0 0.0 0.0 0.00 0.00 0.00 95 1010.4
20260906003046 22 0 0.0 0.0 0.00 0.00 0.00 94 1010.6
20260906001559 23 0 0.0 0.0 0.00 0.00 0.00 95 1010.3
20260906000041 23 0 0.0 0.0 0.00 0.00 0.00 94 1010.2
20260905234539 22 0 0.0 0.0 0.00 0.00 0.00 94 1009.4
20260905233043 23 0 0.0 0.0 0.00 0.00 0.00 93 1008.6
20260905231545 23 0 0.0 0.0 0.00 0.00 0.00 93 1009.4
20260905230048 24 0 0.0 0.0 0.00 0.00 0.00 91 1009.8
20260905224545 26 0 0.0 0.0 0.00 0.00 0.00 82 1009.6
20260905223043 30 0 0.0 0.0 0.00 0.00 0.00 80 1009.2
20260905221550 31 0 0.0 0.0 0.00 0.00 0.00 83 1007.1
20260905220047 31 0 0.0 0.0 0.00 0.00 0.00 82 1007.3
20260905214541 31 0 0.0 0.0 0.00 0.00 0.00 81 1007.3
20260905213056 32 0 0.0 0.0 0.00 0.00 0.00 80 1007.2
20260905211551 32 0 0.0 0.0 0.00 0.00 0.00 79 1007.0
20260905210048 32 0 0.0 0.0 0.00 0.00 0.00 80 1006.9
20260905204541 32 0 0.0 0.0 0.00 0.00 0.00 81 1006.8
20260905203058 32 0 0.0 0.0 0.00 0.00 0.00 80 1006.6
20260905201558 32 0 0.0 0.0 0.00 0.00 0.00 77 1006.9
20260905200041 32 0 0.0 0.0 0.00 0.00 0.00 76 1007.1
20260905194552 33 0 0.0 0.0 0.00 0.00 0.00 73 1006.9
20260905193049 33 0 0.0 0.0 0.00 0.00 0.00 72 1007.2
20260905191559 33 0 0.0 0.0 0.00 0.00 0.00 73 1007.5
20260905190044 33 0 0.0 0.0 0.00 0.00 0.00 72 1007.8
20260905184604 33 0 0.0 0.0 0.00 0.00 0.00 74 1008.2
20260905183109 33 0 0.0 0.0 0.00 0.00 0.00 73 1008.4
20260905181547 33 0 0.0 0.0 0.00 0.00 0.00 71 1008.7
20260905180050 33 0 0.0 0.0 0.00 0.00 0.00 71 1009.0
20260905174541 34 0 0.0 0.0 0.00 0.00 0.00 72 1009.4
20260905173050 34 0 0.0 0.0 0.00 0.00 0.00 73 1009.5
20260905171551 33 0 0.0 0.0 0.00 0.00 0.00 73 1009.4
20260905170057 33 0 0.0 0.0 0.00 0.00 0.00 75 1009.7
20260905164542 32 0 0.0 0.0 0.00 0.00 0.00 77 1010.0
20260905163042 32 0 0.0 0.0 0.00 0.00 0.00 79 1010.1
20260905161548 31 0 0.0 0.0 0.00 0.00 0.00 79 1010.5
20260905160045 31 0 0.0 0.0 0.00 0.00 0.00 80 1010.8
20260905154543 31 0 0.0 0.0 0.00 0.00 0.00 81 1010.8
20260905153052 31 0 0.0 0.0 0.00 0.00 0.00 82 1010.9
20260905151550 30 0 0.0 0.0 0.00 0.00 0.00 84 1011.1
20260905150043 30 0 0.0 0.0 0.00 0.00 0.00 86 1011.0
20260905144552 29 0 0.0 0.0 0.00 0.00 0.00 87 1011.2
20260905143041 29 0 0.0 0.0 0.00 0.00 0.00 88 1011.0
20260905141547 28 0 0.0 0.0 0.00 0.00 0.00 90 1011.1
20260905140047 27 0 0.0 0.0 0.00 0.00 0.00 91 1011.1
20260905134548 27 0 0.0 0.0 0.00 0.00 0.00 93 1011.1
20260905133040 26 0 0.0 0.0 0.00 0.00 0.00 93 1011.2
20260905131543 26 0 0.0 0.0 0.00 0.00 0.00 94 1011.4